Weather in Kurovskoye

Russia / Sverdlovsk Oblast     57°03′08″N   62°54′00″E
temp.,
°C
wind,
m/s
gust,
m/s
humid.,
%
clouds,
%
prec.,
mm/h
press.,
hPa
HPBL,
m
7 may, fri
fri723:00+6wnw34580 0.0 101560
02:00+4w34650 0.0 101764
05:00+3w36700 0.0 1019108
08:00+9w46521 0.0 1020361
11:00+15wsw564150 0.0 10191149
14:00+19wsw56355 0.0 10191715
17:00+20wsw45335 0.0 10182139
20:00+16ssw45466 0.0 101870
8 may, sat
sat823:00+12sw375210 0.0 1019103
02:00+10sw36568 0.0 102094
05:00+9sw336098 0.0 101925
08:00+14ssw3448100 0.0 1020234
11:00+18s3337100 0.0 1019659
14:00+20s222899 0.0 10181939
17:00+20se112699 0.0 10172261
20:00+17ene1136100 0.0 101711
9 may, sun
sun923:00+14n3444100 0.0 101761
02:00+12nne3465100 0.0 101755
05:00+11nne346981 0.0 101750
08:00+15ne3556100 0.0 1018260
11:00+20ne4541100 0.0 10171115
14:00+20e4636100 0.0 10171725
17:00+21ene4632100 0.0 10172119
20:00+16nne485869 0.0 1018249
10 may, mon
mon1023:00+14nne5117059 0.0 1019331
02:00+12nne4879100 0.0 1019159
05:00+11ene338280 0.0 102042
08:00+16ene226153 0.0 1021246
11:00+21ese12425 0.0 10211244
14:00+23sw233119 0.0 10202706
17:00+23wsw2327100 0.0 10202470
20:00+20ssw2238100 0.0 102012
11 may, tue
tue1123:00+17w2247100 0.0 102020
02:00+16w3753100 0.0 1020221
05:00+13wnw2586100 0.9 1021305
08:00+12wnw6991100 4.3 1021571
11:00+8nnw71284100 5.3 1024830
14:00+13nne610506 0.1 10251541
17:00+16n79325 0.1 10252168
20:00+13n334632 0.0 102630